Cold Bay, AK

7:14 PM AKST on February 23, 2017 (GMT -0900)
Cold Bay

Weather History for PACD - June, 2013

Change the Weather History Date:

Wednesday, June 26, 2013

  Actual Average Record
Temperature  
Mean Temperature 44 °F 48 °F  
Max Temperature 46 °F 53 °F 62 °F (2005)
Min Temperature 41 °F 44 °F 34 °F (1964)
Degree Days  
Heating Degree Days 21 17  
Month to date heating degree days 446 497  
Since 1 June heating degree days 446 497  
Since 1 July heating degree days 9630 9495  
Cooling Degree Days 0    
Month to date cooling degree days 0  
Year to date cooling degree days 0  
Since 1 June cooling degree days 0  
Moisture  
Dew Point 42 °F    
Average Humidity 92    
Maximum Humidity 96    
Minimum Humidity 85    
Precipitation  
Precipitation 0.01 in 0.09 in 0.75 in (1952)
Month to date precipitation 2.23 2.39  
Year to date precipitation 17.17 16.25  
Snow  
Snow 0.00 in 0.00 in 0.00 in (2016)
Month to date snowfall 0.0  
Since 1 June snowfall 0.0 0.0  
Since 1 July snowfall 73.1  
Snow Depth 0.00 in    
Sea Level Pressure  
Sea Level Pressure 30.05 in    
Wind  
Wind Speed 15 mph (NW)    
Max Wind Speed 20 mph    
Max Gust Speed 24 mph    
Visibility 5 miles    
Events Rain    
T = Trace of Precipitation, MM = Missing Value Source: NWS Daily Summary

Daily Weather History Graph

Daily Weather History Graph

Search for Another Location

Airport or City:

Trip Planner

Search our weather history database for the weather conditions in past years. The results will help you decide how hot, cold, wet, or windy it might be!

Date:

Astronomy

Jun. 26, 2013 Rise Set
Actual Time 6:12 AM AKDT 11:35 PM AKDT
Civil Twilight 5:13 AM AKDT 12:34 AM AKDT
Nautical Twilight 3:26 AM AKDT 2:21 AM AKDT
Astronomical Twilight Sun does not rise Sun does not rise
Moon 12:46 AM AKDT (6/26) 11:05 AM AKDT (6/26)
Length of Visible Light 19h 20m
Length of Day
17h 23m
Waning Gibbous, 84% of the Moon is Illuminated
Jun 26
Waning Gibbous
Jun 29
Last Quarter
Jul 7
New
Jul 15
First Quarter
Jul 22
Full

Hourly Weather History & Observations

Time (AKDT) Temp. Windchill Dew Point Humidity Pressure Visibility Wind Dir Wind Speed Gust Speed Precip Events Conditions
12:53 AM 43.0 °F 35.1 °F 41.0 °F 93% 29.97 in 4.0 mi WNW 17.3 mph - 0.00 in   Overcast
1:25 AM 42.8 °F 35.1 °F 41.0 °F 93% 29.97 in 2.0 mi WNW 16.1 mph - N/A   Overcast
1:40 AM 42.8 °F 35.1 °F 41.0 °F 93% 29.98 in 1.8 mi WNW 16.1 mph - N/A   Overcast
1:53 AM 43.0 °F 35.4 °F 41.0 °F 93% 29.99 in 0.8 mi WNW 16.1 mph - N/A   Mist
2:13 AM 42.8 °F 34.8 °F 41.0 °F 93% 29.98 in 1.5 mi WNW 17.3 mph - N/A   Overcast
2:53 AM 43.0 °F 35.4 °F 41.0 °F 93% 29.98 in 1.5 mi NW 16.1 mph - N/A   Overcast
3:10 AM 42.8 °F 35.4 °F 41.0 °F 93% 29.98 in 3.0 mi NW 15.0 mph - N/A   Overcast
3:19 AM 42.8 °F 35.4 °F 41.0 °F 93% 29.98 in 1.8 mi WNW 15.0 mph - N/A   Overcast
3:36 AM 42.8 °F 35.8 °F 41.0 °F 93% 29.99 in 2.5 mi WNW 13.8 mph - N/A   Overcast
3:49 AM 42.8 °F 35.8 °F 41.0 °F 93% 29.99 in 4.0 mi NW 13.8 mph - N/A   Overcast
3:53 AM 42.1 °F 34.5 °F 41.0 °F 96% 29.99 in 4.0 mi NW 15.0 mph - N/A   Overcast
4:53 AM 43.0 °F 36.4 °F 41.0 °F 93% 30.00 in 6.0 mi NW 12.7 mph - N/A   Overcast
5:53 AM 44.1 °F 38.6 °F 42.1 °F 93% 30.00 in 6.0 mi NW 10.4 mph - 0.01 in   Overcast
6:04 AM 44.6 °F 39.2 °F 42.8 °F 93% 30.00 in 7.0 mi NW 10.4 mph - N/A   Overcast
6:22 AM 44.6 °F 38.4 °F 42.8 °F 93% 30.00 in 5.0 mi WNW 12.7 mph - 0.00 in Rain Light Rain
6:53 AM 44.1 °F 37.4 °F 42.1 °F 93% 30.01 in 6.0 mi NW 13.8 mph - 0.00 in   Overcast
7:17 AM 44.6 °F 38.1 °F 42.8 °F 93% 30.01 in 4.0 mi NW 13.8 mph - N/A   Overcast
7:53 AM 44.1 °F 36.8 °F 42.1 °F 93% 30.02 in 9.0 mi NW 16.1 mph - 0.00 in   Overcast
8:19 AM 44.6 °F 37.2 °F 42.8 °F 93% 30.03 in 4.0 mi NW 17.3 mph - N/A   Overcast
8:53 AM 43.0 °F 36.0 °F 41.0 °F 93% 30.04 in 10.0 mi NW 13.8 mph - N/A   Overcast
9:35 AM 44.6 °F 37.4 °F 41.0 °F 87% 30.05 in 10.0 mi NW 16.1 mph - N/A   Overcast
9:53 AM 44.1 °F 37.7 °F 42.1 °F 93% 30.05 in 7.0 mi NW 12.7 mph - N/A   Overcast
10:03 AM 44.6 °F 38.1 °F 42.8 °F 93% 30.05 in 3.0 mi NW 13.8 mph - N/A   Overcast
10:36 AM 44.6 °F 37.8 °F 42.8 °F 93% 30.05 in 5.0 mi NW 15.0 mph - 0.00 in Rain Light Rain
10:53 AM 44.1 °F 36.8 °F 42.1 °F 93% 30.06 in 5.0 mi NW 16.1 mph - 0.00 in   Overcast
11:53 AM 45.0 °F 37.9 °F 42.1 °F 90% 30.06 in 5.0 mi NW 16.1 mph - 0.00 in   Overcast
12:53 PM 45.0 °F 37.9 °F 43.0 °F 93% 30.08 in 4.0 mi NW 16.1 mph - 0.00 in   Overcast
1:29 PM 44.6 °F 37.4 °F 42.8 °F 93% 30.08 in 2.0 mi NW 16.1 mph - 0.00 in Rain Light Rain
1:40 PM 44.6 °F 37.4 °F 42.8 °F 93% 30.08 in 4.0 mi WNW 16.1 mph - 0.00 in   Overcast
1:53 PM 45.0 °F 38.2 °F 43.0 °F 93% 30.09 in 5.0 mi NW 15.0 mph - 0.00 in   Overcast
2:53 PM 45.0 °F 38.2 °F 43.0 °F 93% 30.10 in 4.0 mi NW 15.0 mph - N/A   Overcast
3:53 PM 46.0 °F 39.6 °F 43.0 °F 89% 30.09 in 9.0 mi NW 15.0 mph - N/A   Overcast
4:41 PM 46.4 °F 39.8 °F 42.8 °F 87% 30.09 in 9.0 mi WNW 16.1 mph - N/A   Overcast
4:53 PM 45.0 °F 38.2 °F 42.1 °F 90% 30.09 in 10.0 mi NW 15.0 mph - N/A   Overcast
5:00 PM 46.4 °F 39.8 °F 42.8 °F 87% 30.09 in 10.0 mi NNW 16.1 mph - N/A   Overcast
5:53 PM 45.0 °F 37.9 °F 42.1 °F 90% 30.09 in 10.0 mi NW 16.1 mph - N/A   Overcast
6:53 PM 44.1 °F 36.5 °F 41.0 °F 89% 30.11 in 10.0 mi NW 17.3 mph - N/A   Overcast
7:53 PM 44.1 °F 37.1 °F 41.0 °F 89% 30.11 in 10.0 mi WNW 15.0 mph - N/A   Overcast
8:53 PM 43.0 °F 35.7 °F 41.0 °F 93% 30.12 in 10.0 mi NW 15.0 mph - N/A   Overcast
9:53 PM 43.0 °F 36.8 °F 41.0 °F 93% 30.12 in 4.0 mi NW 11.5 mph - N/A   Overcast
10:10 PM 42.8 °F 35.4 °F 39.2 °F 87% 30.12 in 2.5 mi NW 15.0 mph - N/A   Overcast
10:20 PM 42.8 °F 35.8 °F 39.2 °F 87% 30.12 in 4.0 mi NW 13.8 mph - N/A   Overcast
10:53 PM 42.1 °F 34.5 °F 39.9 °F 92% 30.14 in 4.0 mi NW 15.0 mph - N/A   Overcast
11:53 PM 42.1 °F 34.9 °F 39.9 °F 92% 30.14 in 6.0 mi NW 13.8 mph - N/A   Overcast